Hourly Data Report for June 28, 2020

OTTAWA INTL A
ONTARIO
Current Station Operator: NAVCAN

45°19'00.000" N
75°40'00.000" W
114.90 m
6106001
71628
YOW

Download Data

Hourly Data (June 2020)
Hourly Data Report for June 28, 2020
TIME Temp Definition
°C
Dew Point Definition
°C
Rel Hum Definition
%
Wind Dir Definition
10's deg

Wind Spd Definition
km/h
Visibility Definition
km
Stn Press Definition
kPa
Hmdx Definition


Wind Chill Definition


Weather Definition


00:00 16.5 16.1 98 21 7 24.1 99.09     LegendNANA
01:00 17.0 16.7 98 19 10 24.1 99.08     Mostly Cloudy
02:00 17.1 16.8 98 21 8 24.1 99.06     LegendNANA
03:00 16.9 16.7 98 36 3 0.6 99.04     Fog
04:00 17.2 17.1 99 0 1 0.2 99.09     Fog
05:00 17.4 17.3 99 14 4 0.2 99.14     Fog
06:00 17.6 17.5 99 20 3 0.4 99.19     Fog
07:00 17.8 17.8 100 29 5 1.6 99.25     Fog
08:00 18.5 18.5 100 28 7 6.4 99.26     Fog
09:00 19.7 19.1 97 33 6 24.1 99.29     LegendNANA
10:00 22.8 18.5 76 36 3 24.1 99.29 29   Mostly Cloudy
11:00 23.9 18.5 72 28 3 24.1 99.28 30   LegendNANA
12:00 23.1 18.7 76 32 14 24.1 99.28 30   LegendNANA
13:00 26.7 18.6 61 4 8 24.1 99.25 33   Mostly Cloudy
14:00 23.4 19.9 80 3 8 24.1 99.28 31   LegendNANA
15:00 26.1 19.0 65 2 14 24.1 99.27 33   LegendNANA
16:00 24.9 18.3 66 36 11 24.1 99.28 31   Mostly Cloudy
17:00 27.2 18.2 57 1 12 24.1 99.28 33   LegendNANA
18:00 18.8 16.2 85 2 48 4.8 99.42     Thunderstorms,Heavy Rain Showers
19:00 18.7 17.0 90 17 8 24.1 99.43     Mostly Cloudy
20:00 19.9 18.4 91 36 8 24.1 99.46     LegendNANA
21:00 18.3 17.3 94 36 3 24.1 99.49     LegendNANA
22:00 17.3 16.6 96 7 7 24.1 99.54     Mainly Clear
23:00 17.7 17.1 97 30 4 24.1 99.58     LegendNANA

Notes on Data Quality.

Legend

  • E = Estimated
  • M = Missing
  • NA = Not Available*
  • [empty] = Indicates an unobserved value
Date modified: